Weather History for Findlay, OH

Change the Weather History Date:

Thursday, October 24, 2013

  Actual Average Record
Temperature  
Mean Temperature 38 °F -  
Max Temperature 45 °F 60 °F 81 °F (1963)
Min Temperature 32 °F 41 °F 24 °F (1969)
Degree Days  
Heating Degree Days 27    
Moisture  
Dew Point 31 °F    
Average Humidity 75    
Maximum Humidity 92    
Minimum Humidity 58    
Precipitation  
Precipitation 0.00 in - - ()
Sea Level Pressure  
Sea Level Pressure 30.07 in    
Wind  
Wind Speed 11 mph (West)    
Max Wind Speed 17 mph    
Max Gust Speed 23 mph    
Visibility 10 miles    
Events      
Averages and records for this station are not official NWS values.
T = Trace of Precipitation, MM = Missing Value Source: NWS Daily Summary

Daily Weather History Graph

Daily Weather History Graph

Search for Another Location

Airport:

Trip Planner

Search our weather history database for the weather conditions in past years. The results will help you decide how hot, cold, wet, or windy it might be!

Date:

Astronomy

Oct. 24, 2013 Rise Set
Actual Time 7:56 AM EDT 6:40 PM EDT
Civil Twilight 7:28 AM EDT 7:08 PM EDT
Nautical Twilight 6:56 AM EDT 7:40 PM EDT
Astronomical Twilight 6:24 AM EDT 8:12 PM EDT
Moon 11:03 PM EDT (10/24) 12:57 PM EDT (10/24)
Length of Visible Light 11h 40m
Length of Day
10h 44m
Waning Gibbous, 71% of the Moon is Illuminated
Oct 24
Waning Gibbous
Oct 26
Last Quarter
Nov 3
New
Nov 10
First Quarter
Nov 17
Full

Hourly Weather History & Observations

Time (EDT) Temp. Windchill Dew Point Humidity Pressure Visibility Wind Dir Wind Speed Gust Speed Precip Events Conditions
12:53 AM 37.0 °F 31.0 °F 30.0 °F 76% 29.97 in 10.0 mi West 8.1 mph - N/A   Overcast
1:53 AM 37.0 °F 28.9 °F 30.0 °F 76% 29.97 in 10.0 mi West 12.7 mph - N/A   Overcast
2:53 AM 36.0 °F 29.0 °F 30.0 °F 79% 29.97 in 10.0 mi West 9.2 mph - N/A   Mostly Cloudy
3:53 AM 34.0 °F 27.2 °F 30.0 °F 85% 29.98 in 10.0 mi WSW 8.1 mph - N/A   Scattered Clouds
4:53 AM 35.1 °F 27.9 °F 30.0 °F 82% 29.98 in 10.0 mi WSW 9.2 mph - N/A   Overcast
5:53 AM 35.1 °F 27.9 °F 30.0 °F 82% 29.99 in 10.0 mi WSW 9.2 mph - N/A   Overcast
6:53 AM 36.0 °F 28.0 °F 30.0 °F 79% 30.01 in 10.0 mi WSW 11.5 mph - N/A   Overcast
7:53 AM 35.1 °F 26.9 °F 30.0 °F 82% 30.01 in 10.0 mi West 11.5 mph - N/A   Overcast
8:53 AM 35.1 °F 26.4 °F 30.0 °F 82% 30.03 in 10.0 mi West 12.7 mph - N/A   Overcast
9:53 AM 37.9 °F 29.6 °F 30.9 °F 76% 30.05 in 10.0 mi West 13.8 mph 19.6 mph N/A   Mostly Cloudy
10:53 AM 41.0 °F 33.1 °F 30.9 °F 67% 30.06 in 10.0 mi West 15.0 mph - N/A   Overcast
11:53 AM 41.0 °F 33.5 °F 30.0 °F 65% 30.06 in 10.0 mi West 13.8 mph - N/A   Overcast
12:39 PM 42.8 °F 36.2 °F 30.2 °F 61% 30.06 in 10.0 mi West 12.7 mph - N/A   Overcast
12:53 PM 43.0 °F 36.0 °F 30.9 °F 62% 30.06 in 10.0 mi West 13.8 mph 19.6 mph N/A   Overcast
1:16 PM 42.8 °F 35.1 °F 30.2 °F 61% 30.06 in 10.0 mi West 16.1 mph 23.0 mph N/A   Overcast
1:53 PM 43.0 °F 35.4 °F 30.0 °F 60% 30.06 in 10.0 mi West 16.1 mph 21.9 mph N/A   Overcast
2:53 PM 44.1 °F 36.5 °F 30.0 °F 58% 30.06 in 10.0 mi WNW 17.3 mph 21.9 mph N/A   Overcast
3:53 PM 41.0 °F 32.5 °F 32.0 °F 70% 30.08 in 10.0 mi WSW 17.3 mph 23.0 mph N/A   Mostly Cloudy
4:53 PM 42.1 °F 36.1 °F 33.1 °F 70% 30.09 in 10.0 mi SW 10.4 mph - 0.00 in   Overcast
5:53 PM 39.9 °F 33.4 °F 33.1 °F 77% 30.11 in 10.0 mi WSW 10.4 mph - 0.00 in   Mostly Cloudy
6:53 PM 39.9 °F 35.1 °F 33.1 °F 77% 30.14 in 10.0 mi West 6.9 mph - 0.00 in   Overcast
7:53 PM 37.0 °F 30.4 °F 30.9 °F 79% 30.16 in 10.0 mi WSW 9.2 mph - N/A   Scattered Clouds
8:53 PM 37.0 °F 31.0 °F 30.9 °F 79% 30.17 in 10.0 mi West 8.1 mph - N/A   Clear
9:53 PM 36.0 °F 28.0 °F 30.9 °F 82% 30.19 in 10.0 mi West 11.5 mph - N/A   Clear
10:53 PM 32.0 °F 25.6 °F 28.9 °F 88% 30.20 in 10.0 mi West 6.9 mph - N/A   Partly Cloudy
11:53 PM 32.0 °F 25.6 °F 30.0 °F 92% 30.22 in 10.0 mi West 6.9 mph - N/A   Clear